Hugo, OK

12:33 PM CDT on September 20, 2017 (GMT -0500)
Stamper Municipal

Weather History for KHHW - November, 2012

Change the Weather History Date:

Monday, November 5, 2012

  Actual Average Record
Temperature  
Mean Temperature 60 °F -  
Max Temperature 72 °F 68 °F 76 °F (2015)
Min Temperature 46 °F 42 °F 50 °F (2014)
Degree Days  
Heating Degree Days 6    
Growing Degree Days 10 (Base 50)    
Moisture  
Dew Point 44 °F    
Average Humidity 65    
Maximum Humidity 94    
Minimum Humidity 23    
Precipitation  
Precipitation 0.00 in - - ()
Sea Level Pressure  
Sea Level Pressure 30.04 in    
Wind  
Wind Speed 6 mph ()    
Max Wind Speed 22 mph    
Max Gust Speed 29 mph    
Visibility 10.0 miles    
Events      
Averages and records for this station are not official NWS values.
T = Trace of Precipitation, MM = Missing Value Source: Averaged Metar Reports

Daily Weather History Graph

Daily Weather History Graph

Search for Another Location

Airport or City:

Trip Planner

Search our weather history database for the weather conditions in past years. The results will help you decide how hot, cold, wet, or windy it might be!

Date:

Astronomy

Nov. 05, 2012 Rise Set
Actual Time 6:45 AM CST 5:25 PM CST
Civil Twilight 6:19 AM CST 5:51 PM CST
Nautical Twilight 5:49 AM CST 6:21 PM CST
Astronomical Twilight 5:20 AM CST 6:50 PM CST
Moon 11:03 PM CST (11/5) 12:05 PM CST (11/5)
Length of Visible Light 11h 31m
Length of Day
10h 39m
Waning Gibbous, 62% of the Moon is Illuminated
Nov 5
Waning Gibbous
Nov 6
Last Quarter
Nov 13
New
Nov 20
First Quarter
Nov 28
Full

Hourly Weather History & Observations

Time (CST) Temp. Dew Point Humidity Pressure Visibility Wind Dir Wind Speed Gust Speed Precip Events Conditions
12:15 AM 52.0 °F 50.0 °F 93% 30.09 in 10.0 mi ESE 4.6 mph - N/A   Clear
12:35 AM 52.2 °F 50.0 °F 92% 30.08 in 10.0 mi East 4.6 mph - N/A   Clear
12:55 AM 51.8 °F 50.0 °F 94% 30.08 in 10.0 mi East 4.6 mph - N/A   Clear
1:15 AM 52.0 °F 49.6 °F 92% 30.08 in 10.0 mi East 4.6 mph - N/A   Clear
1:35 AM 51.6 °F 49.3 °F 92% 30.08 in 10.0 mi East 4.6 mph - N/A   Scattered Clouds
1:55 AM 51.4 °F 49.3 °F 92% 30.07 in 10.0 mi ESE 4.6 mph - N/A   Mostly Cloudy
2:15 AM 52.3 °F 50.0 °F 92% 30.07 in 10.0 mi ESE 3.5 mph - N/A   Overcast
2:35 AM 52.9 °F 50.2 °F 91% 30.07 in 10.0 mi Calm Calm - N/A   Overcast
3:15 AM 52.7 °F 50.4 °F 92% 30.06 in 10.0 mi ENE 3.5 mph - N/A   Overcast
3:35 AM 52.7 °F 50.2 °F 91% 30.06 in 10.0 mi Calm Calm - N/A   Overcast
3:55 AM 52.7 °F 50.2 °F 91% 30.06 in 10.0 mi Calm Calm - N/A   Overcast
4:15 AM 53.6 °F 50.7 °F 90% 30.05 in 10.0 mi ESE 4.6 mph - N/A   Overcast
4:35 AM 53.6 °F 50.2 °F 88% 30.06 in 10.0 mi Calm Calm - N/A   Overcast
4:55 AM 53.6 °F 50.2 °F 88% 30.06 in 10.0 mi Calm Calm - N/A   Overcast
5:15 AM 53.1 °F 50.0 °F 89% 30.06 in 10.0 mi Calm Calm - N/A   Overcast
5:35 AM 52.9 °F 50.0 °F 90% 30.06 in 10.0 mi Calm Calm - N/A   Mostly Cloudy
5:55 AM 53.1 °F 50.0 °F 89% 30.05 in 10.0 mi Calm Calm - N/A   Overcast
6:15 AM 52.3 °F 49.6 °F 91% 30.04 in 10.0 mi ESE 3.5 mph - N/A   Mostly Cloudy
6:35 AM 52.2 °F 49.1 °F 89% 30.04 in 10.0 mi ESE 3.5 mph - N/A   Clear
6:55 AM 52.2 °F 48.7 °F 88% 30.04 in 10.0 mi ESE 3.5 mph - N/A   Scattered Clouds
7:15 AM 52.5 °F 48.9 °F 88% 30.05 in 10.0 mi ESE 3.5 mph - N/A   Overcast
7:35 AM 52.7 °F 49.3 °F 88% 30.05 in 10.0 mi Calm Calm - N/A   Overcast
7:55 AM 53.6 °F 49.3 °F 85% 30.05 in 10.0 mi Calm Calm - N/A   Overcast
8:15 AM 54.0 °F 48.7 °F 82% 30.05 in 10.0 mi Calm Calm - N/A   Overcast
8:35 AM 55.0 °F 48.9 °F 80% 30.05 in 10.0 mi SSE 5.8 mph - N/A   Overcast
8:55 AM 55.6 °F 49.1 °F 79% 30.06 in 10.0 mi Calm Calm - N/A   Overcast
9:15 AM 56.1 °F 49.5 °F 78% 30.06 in 10.0 mi Calm Calm - N/A   Overcast
9:35 AM 57.0 °F 50.2 °F 78% 30.06 in 10.0 mi Calm Calm - N/A   Overcast
9:55 AM 57.9 °F 51.3 °F 78% 30.06 in 10.0 mi WNW 4.6 mph - N/A   Mostly Cloudy
10:15 AM 60.4 °F 52.3 °F 75% 30.06 in 10.0 mi WNW 6.9 mph - N/A   Scattered Clouds
10:35 AM 60.4 °F 52.0 °F 74% 30.06 in 10.0 mi WNW 8.1 mph - N/A   Scattered Clouds
10:55 AM 62.6 °F 51.8 °F 68% 30.05 in 10.0 mi NW 9.2 mph - N/A   Clear
11:15 AM 64.6 °F 52.0 °F 64% 30.04 in 10.0 mi WNW 6.9 mph - N/A   Clear
11:35 AM 66.6 °F 51.1 °F 57% 30.03 in 10.0 mi North 5.8 mph - N/A   Clear
11:55 AM 66.0 °F 48.6 °F 53% 30.02 in 10.0 mi NNW 6.9 mph - N/A   Clear
12:15 PM 65.8 °F 48.7 °F 54% 30.01 in 10.0 mi WNW 6.9 mph - N/A   Clear
12:35 PM 67.8 °F 48.2 °F 49% 30.01 in 10.0 mi NNW 10.4 mph 16.1 mph N/A   Clear
12:55 PM 70.0 °F 43.3 °F 38% 29.99 in 10.0 mi NW 10.4 mph 20.7 mph N/A   Scattered Clouds
1:15 PM 70.5 °F 43.9 °F 38% 29.98 in 10.0 mi NNW 10.4 mph 16.1 mph N/A   Scattered Clouds
1:35 PM 70.5 °F 40.8 °F 34% 29.98 in 10.0 mi NNW 15.0 mph 25.3 mph N/A   Mostly Cloudy
1:55 PM 72.1 °F 40.3 °F 32% 29.98 in 10.0 mi NNW 19.6 mph 28.8 mph N/A   Scattered Clouds
2:15 PM 71.6 °F 38.8 °F 30% 29.97 in 10.0 mi NNW 18.4 mph 25.3 mph N/A   Scattered Clouds
2:35 PM 71.8 °F 38.3 °F 30% 29.97 in 10.0 mi NNW 17.3 mph 26.5 mph N/A   Scattered Clouds
2:55 PM 71.8 °F 37.2 °F 28% 29.97 in 10.0 mi North 13.8 mph 26.5 mph N/A   Clear
3:15 PM 71.6 °F 35.6 °F 27% 29.97 in 10.0 mi North 16.1 mph 23.0 mph N/A   Clear
3:55 PM 70.3 °F 30.7 °F 23% 29.98 in 10.0 mi North 15.0 mph 25.3 mph N/A   Clear
4:15 PM 69.4 °F 30.4 °F 23% 29.98 in 10.0 mi NNW 17.3 mph 25.3 mph N/A   Clear
4:35 PM 68.4 °F 32.7 °F 27% 29.98 in 10.0 mi NNW 21.9 mph 25.3 mph N/A   Clear
4:55 PM 67.1 °F 32.7 °F 28% 29.99 in 10.0 mi NNW 18.4 mph 25.3 mph N/A   Clear
5:15 PM 65.5 °F 33.8 °F 31% 29.99 in 10.0 mi NNW 13.8 mph 21.9 mph N/A   Clear
5:35 PM 63.7 °F 34.7 °F 34% 30.00 in 10.0 mi NNW 11.5 mph - N/A   Clear
5:55 PM 62.6 °F 36.0 °F 37% 30.01 in 10.0 mi NNW 11.5 mph - N/A   Clear
6:15 PM 61.5 °F 36.5 °F 39% 30.01 in 10.0 mi NNW 9.2 mph 18.4 mph N/A   Clear
6:35 PM 60.8 °F 37.6 °F 42% 30.03 in 10.0 mi NNW 9.2 mph - N/A   Clear
6:55 PM 59.5 °F 38.3 °F 45% 30.03 in 10.0 mi NNW 12.7 mph 16.1 mph N/A   Clear
7:15 PM 58.1 °F 38.7 °F 48% 30.04 in 10.0 mi NNW 11.5 mph 17.3 mph N/A   Clear
7:35 PM 57.6 °F 39.2 °F 50% 30.05 in 10.0 mi North 17.3 mph - N/A   Clear
7:55 PM 57.2 °F 39.7 °F 52% 30.05 in 10.0 mi North 13.8 mph 23.0 mph N/A   Clear
8:15 PM 55.6 °F 40.1 °F 56% 30.05 in 10.0 mi North 10.4 mph 26.5 mph N/A   Clear
8:35 PM 54.5 °F 39.9 °F 58% 30.06 in 10.0 mi North 11.5 mph 17.3 mph N/A   Clear
8:55 PM 53.1 °F 39.4 °F 60% 30.07 in 10.0 mi North 9.2 mph - N/A   Clear
9:15 PM 52.7 °F 39.2 °F 60% 30.08 in 10.0 mi North 5.8 mph - N/A   Clear
9:35 PM 50.7 °F 38.7 °F 63% 30.08 in 10.0 mi NNW 6.9 mph - N/A   Clear
9:55 PM 50.0 °F 38.7 °F 65% 30.09 in 10.0 mi NNW 5.8 mph - N/A   Clear
10:15 PM 49.3 °F 38.7 °F 67% 30.10 in 10.0 mi NW 5.8 mph - N/A   Clear
10:35 PM 49.1 °F 38.7 °F 67% 30.10 in 10.0 mi NW 6.9 mph - N/A   Clear
10:55 PM 48.2 °F 38.3 °F 69% 30.09 in 10.0 mi NW 6.9 mph - N/A   Clear
11:15 PM 47.5 °F 38.3 °F 70% 30.09 in 10.0 mi WNW 6.9 mph - N/A   Clear
11:35 PM 47.8 °F 38.3 °F 70% 30.09 in 10.0 mi NW 4.6 mph - N/A   Clear
11:55 PM 46.8 °F 37.8 °F 71% 30.08 in 10.0 mi WNW 3.5 mph - N/A   Clear